This demonstration page uses our WeatherBlox Daily Observations layout. Learn more.

Left ArrowRight Arrow

34.74481, -87.66753

Hourly Observations for May 28, 2022

Temp ( °F °C ) Dew Point ( °F °C ) Humidity (%) Winds ( mph kmh ) Pressure ( in mb ) Visibility ( mi km ) Precip ( " mm )
12:53 am 00:53 Clear 60 15.6 57 13.9 90 90 Calm 29.95 1014 10 16 0.00 0.00
1:53 am 01:53 Clear 58 14.4 56 13.3 93 93 Calm 29.93 1014 10 16 0.00 0.00
2:48 am 02:48 Clear with Mist and Fog 57 14 55 13 94 94 Calm 29.94 1014 2 2 0.00 0.00
2:53 am 02:53 Clear with Mist and Fog 58 14.4 56 13.3 93 93 Calm 29.93 1014 1 2 0.00 0.00
3:08 am 03:08 Clear with Mist and Fog 57 13.9 55 12.8 93 93 Calm 29.94 1014 1 1 0.00 0.00
3:46 am 03:46 Clear with Mist and Fog 57 13.9 55 12.8 93 93 Calm 29.95 1014 2 3 0.00 0.00
3:53 am 03:53 Clear with Mist and Fog 56 13.3 55 12.8 97 97 Calm 29.93 1014 2 3 0.00 0.00
4:00 am 04:00 Clear with Mist and Fog 56 13.3 55 12.8 97 97 SE 3 6 29.95 1014 1 2 0.00 0.00
4:24 am 04:24 Mostly Cloudy with Mist and Fog 57 13.9 55 12.8 93 93 Calm 29.96 1015 1 1 0.00 0.00
4:28 am 04:28 Mostly Clear with Mist and Fog 57 13.9 55 12.8 93 93 Calm 29.96 1015 1 2 0.00 0.00
4:31 am 04:31 Mostly Clear with Mist and Fog 56 13.3 55 12.8 97 97 Calm 29.96 1015 4 6 0.00 0.00
4:42 am 04:42 Partly Cloudy with Mist and Fog 56 13.3 55 12.8 97 97 Calm 29.96 1015 2 3 0.00 0.00
4:47 am 04:47 Mostly Cloudy with Mist and Fog 55 13 55 13 100 100 Calm 29.96 1015 1 1 0.00 0.00
4:53 am 04:53 Mostly Cloudy with Fog 57 13.9 55 12.8 93 93 Calm 29.95 1014 1 1 0.00 0.00
5:09 am 05:09 Mostly Cloudy with Mist and Fog 56 13.3 55 12.8 97 97 Calm 29.96 1015 2 2 0.00 0.00
5:15 am 05:15 Mostly Cloudy with Mist and Fog 56 13.3 55 12.8 97 97 Calm 29.97 1015 3 5 0.00 0.00
5:19 am 05:19 Mostly Cloudy with Mist and Fog 57 13.9 55 12.8 93 93 Calm 29.97 1015 2 3 0.00 0.00
5:35 am 05:35 Mostly Cloudy with Mist and Fog 57 13.9 56 13.3 96 96 Calm 29.97 1015 4 6 0.00 0.00
5:53 am 05:53 Cloudy 58 14.4 57 13.9 97 97 Calm 29.96 1015 10 16 0.00 0.00
6:18 am 06:18 Cloudy 59 15 58 14.4 96 96 Calm 29.98 1015 10 16 0.00 0.00
6:29 am 06:29 Cloudy 60 15.6 58 14.4 93 93 Calm 29.99 1015 8 13 0.00 0.00
6:53 am 06:53 Cloudy 61 16.1 60 15.6 97 97 Calm 29.98 1015 10 16 0.00 0.00
7:53 am 07:53 Mostly Cloudy 66 18.9 59 15 78 78 NNE 6 9 29.99 1016 10 16 0.00 0.00
8:34 am 08:34 Mostly Sunny 66 18.9 58 14.4 75 75 ENE 6 9 30.00 1016 10 16 0.00 0.00
8:53 am 08:53 Mostly Cloudy 66 18.9 58 14.4 75 75 NE 5 7 30.00 1016 10 16 0.00 0.00
9:03 am 09:03 Mostly Cloudy 66 18.9 58 14.4 75 75 N 3 6 30.00 1016 10 16 0.00 0.00
9:53 am 09:53 Cloudy 67 19.4 58 14.4 73 73 ENE 5 7 29.99 1016 10 16 0.00 0.00
10:12 am 10:12 Cloudy 69 20.6 58 14.4 68 68 E 6 9 30.00 1016 10 16 0.00 0.00
10:21 am 10:21 Cloudy 68 20 58 14.4 70 70 Calm 30.00 1016 10 16 0.00 0.00
10:53 am 10:53 Cloudy 69 20.6 58 14.4 68 68 Calm 29.98 1015 10 16 0.00 0.00
11:18 am 11:18 Cloudy 70 21.1 56 13.3 61 61 Calm 29.99 1015 10 16 0.00 0.00
11:53 am 11:53 Cloudy 71 21.7 57 13.9 61 61 VRB 3 6 29.99 1016 10 16 0.00 0.00
12:53 pm 12:53 Cloudy 73 22.8 58 14.4 59 59 VRB 5 7 29.98 1015 10 16 0.00 0.00
1:53 pm 13:53 Mostly Cloudy 73 22.8 58 14.4 59 59 VRB 5 7 29.97 1015 10 16 0.00 0.00
2:53 pm 14:53 Mostly Cloudy 77 25 60 15.6 56 56 undefined N/A 29.94 1014 10 16 0.00 0.00
3:53 pm 15:53 Mostly Cloudy 76 24.4 60 15.6 58 58 NW 5 7 29.93 1014 10 16 0.00 0.00
4:53 pm 16:53 Sunny 77 25 60 15.6 56 56 NNW 5 7 29.91 1013 10 16 0.00 0.00
5:53 pm 17:53 Mostly Cloudy 76 24.4 58 14.4 54 54 ESE 5 7 29.90 1013 10 16 0.00 0.00
6:53 pm 18:53 Sunny 71 21.7 60 15.6 68 68 ENE 3 6 29.90 1013 10 16 0.00 0.00
7:53 pm 19:53 Sunny 69 20.6 61 16.1 76 76 E 3 6 29.89 1012 10 16 0.00 0.00
8:53 pm 20:53 Clear 65 18.3 60 15.6 84 84 Calm 29.89 1012 10 16 0.00 0.00
9:53 pm 21:53 Clear 64 17.8 59 15 84 84 Calm 29.91 1013 10 16 0.00 0.00
10:53 pm 22:53 Clear 62 16.7 59 15 90 90 Calm 29.92 1013 10 16 0.00 0.00
11:53 pm 23:53 Clear 61 16.1 59 15 93 93 Calm 29.93 1013 10 16 0.00 0.00

Powered by AerisWeather